Location: *
(44.3925°N, 5.4708°E)
Time: 09:26:03
(UTC+00:00)

Cosmos 2333 - Pass Details

Date: 18 September 2019
Orbit: 831 x 865 km, 70.9° (Epoch: 14 October)

Event Time Altitude Azimuth Distance (km) Brightness Sun altitude
Rises 18:28:44 0° 333° (NNW) 3,402 7.9 -8.8°
Reaches altitude 10° 18:31:11 10° 333° (NNW) 2,468 7.2 -9.2°
Maximum altitude 18:36:51 82° 247° (WSW) 861 4.3 -10.2°
Drops below altitude 10° 18:42:33 10° 160° (SSE) 2,475 6.3 -11.2°
Sets 18:45:00 0° 159° (SSE) 3,412 7.0 -11.6°
